Location: Bergnerzell
(49.1816°N, 10.2565°E)
Time: 02:20:40
(UTC+00:00)

Cosmos 1954 Rocket - Pass Details

Date: 23 May 2024
Orbit: 750 x 778 km, 74.0° (Epoch: 19 June)

Event Time Altitude Azimuth Distance (km) Brightness Sun altitude
Exits shadow 00:48:45 28° 221° (SW) 1,428 4.8 -17.2°
Maximum altitude 00:51:32 66° 296° (WNW) 851 4.2 -17.0°
Drops below altitude 10° 00:56:50 10° 19° (NNE) 2,340 7.8 -16.6°
Sets 00:59:15 0° 22° (NNE) 3,269 9.1 -16.5°
